2023/02/11 00:00:00,93.0, 1.0
2023/02/11 00:10:00,93.0, 1.1
2023/02/11 00:20:00,93.0, 0.9
2023/02/11 00:30:00,93.0, 1.1
2023/02/11 00:40:00,93.0, 1.0
2023/02/11 00:50:00,92.9, 1.1
2023/02/11 01:00:00,92.9, 1.2
2023/02/11 01:10:00,92.9, 1.2
2023/02/11 01:20:00,93.0, 1.3
2023/02/11 01:30:00,92.7, 1.2
2023/02/11 01:40:00,92.3, 1.1
2023/02/11 01:50:00,92.2, 1.4
2023/02/11 02:00:00,92.1, 1.1
2023/02/11 02:10:00,92.1, 1.2
2023/02/11 02:20:00,92.1, 1.4
2023/02/11 02:30:00,92.1, 1.2
2023/02/11 02:40:00,92.2, 1.6
2023/02/11 02:50:00,92.2, 1.5
2023/02/11 03:00:00,92.1, 1.3
2023/02/11 03:10:00,92.1, 1.3
2023/02/11 03:20:00,92.1, 1.2
2023/02/11 03:30:00,92.1, 1.1
2023/02/11 03:40:00,92.0, 1.0
2023/02/11 03:50:00,92.0, 0.8
2023/02/11 04:00:00,92.0, 0.8
2023/02/11 04:10:00,91.9, 1.0
2023/02/11 04:20:00,91.9, 0.8
2023/02/11 04:30:00,91.9, 0.9
2023/02/11 04:40:00,91.9, 0.8
2023/02/11 04:50:00,91.9, 0.7
2023/02/11 05:00:00,91.9, 0.7
2023/02/11 05:10:00,91.9, 0.4
2023/02/11 05:20:00,91.9, 0.6
2023/02/11 05:30:00,91.9, 0.7
2023/02/11 05:40:00,92.0, 0.6
2023/02/11 05:50:00,92.0, 0.7
2023/02/11 06:00:00,92.0, 0.5
2023/02/11 06:10:00,91.9, 0.5
2023/02/11 06:20:00,91.9, 0.5
2023/02/11 06:30:00,91.9, 0.3
2023/02/11 06:40:00,92.0, 0.0
2023/02/11 06:50:00,91.8, 0.6
2023/02/11 07:00:00,91.8, 0.6
2023/02/11 07:10:00,91.9, 1.2
2023/02/11 07:20:00,91.8, 0.7
2023/02/11 07:30:00,91.7, 0.6
2023/02/11 07:40:00,91.7, 0.7
2023/02/11 07:50:00,91.7, 0.6
2023/02/11 08:00:00,91.6, 0.7
2023/02/11 08:10:00,91.6, 0.8
2023/02/11 08:20:00,91.6, 1.3
2023/02/11 08:30:00,91.6, 1.6
2023/02/11 08:40:00,91.4, 1.8
2023/02/11 08:50:00,91.4, 2.4
2023/02/11 09:00:00,91.5, 2.4
2023/02/11 09:10:00,91.4, 2.5
2023/02/11 09:20:00,91.3, 3.2
2023/02/11 09:30:00,91.3, 2.5
2023/02/11 09:40:00,91.3, 3.2
2023/02/11 09:50:00,91.3, 4.2
2023/02/11 10:00:00,91.2, 4.7
2023/02/11 10:10:00,91.3, 6.0
2023/02/11 10:20:00,91.1, 4.3
2023/02/11 10:30:00,91.1, 5.0
2023/02/11 10:40:00,91.3, 6.2
2023/02/11 10:50:00,91.3, 6.3
2023/02/11 11:00:00,91.4, 8.1
2023/02/11 11:10:00,---, 9.6
2023/02/11 11:20:00,91.0, 7.8
2023/02/11 11:30:00,140.4, 8.6
2023/02/11 11:40:00,91.1, 6.5
2023/02/11 11:50:00,91.1, 7.6
2023/02/11 12:00:00,91.0, 8.1
2023/02/11 12:10:00,91.1, 9.0
2023/02/11 12:20:00,91.0, 9.6
2023/02/11 12:30:00,91.0,10.0
2023/02/11 12:40:00,91.2,10.4
2023/02/11 12:50:00,91.0, 9.1
2023/02/11 13:00:00,91.0, 9.6
2023/02/11 13:10:00,91.0, 8.5
2023/02/11 13:20:00,91.0, 9.1
2023/02/11 13:30:00,90.9, 8.5
2023/02/11 13:40:00,90.8, 7.5
2023/02/11 13:50:00,91.0, 8.6
2023/02/11 14:00:00,---,11.2
2023/02/11 14:10:00,139.9,12.1
2023/02/11 14:20:00,90.7,10.7
2023/02/11 14:30:00,90.2, 8.1
2023/02/11 14:40:00,90.0, 7.4
2023/02/11 14:50:00,90.0, 7.7
2023/02/11 15:00:00,90.1, 7.9
2023/02/11 15:10:00,89.8, 6.8
2023/02/11 15:20:00,89.7, 6.9
2023/02/11 15:30:00,89.5, 6.1
2023/02/11 15:40:00,89.5, 6.1
2023/02/11 15:50:00,89.5, 5.0
2023/02/11 16:00:00,89.5, 4.8
2023/02/11 16:10:00,89.5, 4.1
2023/02/11 16:20:00,89.4, 3.4
2023/02/11 16:30:00,89.5, 2.8
2023/02/11 16:40:00,89.4, 3.3
2023/02/11 16:50:00,89.3, 2.7
2023/02/11 17:00:00,89.3, 2.8
2023/02/11 17:10:00,89.3, 2.4
2023/02/11 17:20:00,89.2, 2.4
2023/02/11 17:30:00,89.1, 2.0
2023/02/11 17:40:00,89.0, 1.8
2023/02/11 17:50:00,89.1, 1.6
2023/02/11 18:00:00,89.1, 1.5
2023/02/11 18:10:00,89.1, 1.5
2023/02/11 18:20:00,89.1, 1.1
2023/02/11 18:30:00,89.1, 1.1
2023/02/11 18:40:00,89.0, 0.9
2023/02/11 18:50:00,89.0, 0.8
2023/02/11 19:00:00,89.0, 0.8
2023/02/11 19:10:00,88.9, 0.9
2023/02/11 19:20:00,88.9, 0.7
2023/02/11 19:30:00,88.9, 1.0
2023/02/11 19:40:00,88.9, 0.6
2023/02/11 19:50:00,88.8, 1.0
2023/02/11 20:00:00,88.8, 1.0
2023/02/11 20:10:00,88.8, 0.9
2023/02/11 20:20:00,88.8, 1.1
2023/02/11 20:30:00,88.8, 1.1
2023/02/11 20:40:00,88.7, 0.9
2023/02/11 20:50:00,88.8, 1.1
2023/02/11 21:00:00,88.8, 1.1
2023/02/11 21:10:00,88.7, 1.1
2023/02/11 21:20:00,88.7, 1.2
2023/02/11 21:30:00,88.8, 1.1
2023/02/11 21:40:00,88.8, 1.2
2023/02/11 21:50:00,88.7, 1.3
2023/02/11 22:00:00,88.7, 1.1
2023/02/11 22:10:00,88.7, 0.9
2023/02/11 22:20:00,88.7, 1.1
2023/02/11 22:30:00,88.6, 1.1
2023/02/11 22:40:00,88.5, 1.0
2023/02/11 22:50:00,88.5, 1.1
2023/02/11 23:00:00,88.5, 1.0
2023/02/11 23:10:00,88.4, 0.8
2023/02/11 23:20:00,88.4, 1.0
2023/02/11 23:30:00,88.4, 1.3
2023/02/11 23:40:00,88.4, 1.3
2023/02/11 23:50:00,88.4, 1.2
